DW3478 Weather Reports


time (UTC)temp
C
wind
direction
speed
KPH
gust
KPH
rain 1hr
cm
rain 24hr
cm
rain mn
cm
humidity
%
barometer
mb
20260507204804 14 233 3.2 4.8 0.00 0.00 0.00 72 1008.8
20260507204304 14 222 4.8 4.8 0.00 0.00 0.00 71 1008.9
20260507203804 14 255 4.8 8.0 0.00 0.00 0.00 71 1008.8
20260507203305 14 274 4.8 8.0 0.00 0.00 0.00 71 1008.9
20260507200804 14 259 3.2 4.8 0.00 0.00 0.00 69 1008.8
20260507200305 15 218 3.2 4.8 0.00 0.00 0.00 69 1008.8
20260507194804 15 220 3.2 4.8 0.00 0.00 0.00 68 1008.7
20260507194305 15 245 3.2 4.8 0.00 0.00 0.00 68 1008.8
20260507193805 15 239 3.2 4.8 0.00 0.00 0.00 67 1008.8
20260507191804 15 250 4.8 8.0 0.00 0.00 0.00 66 1008.8
20260507191304 15 250 6.4 11.3 0.00 0.00 0.00 67 1008.8
20260507190805 15 260 3.2 8.0 0.00 0.00 0.00 64 1008.8
20260507185306 16 230 4.8 8.0 0.00 0.00 0.00 65 1008.8
20260507184805 16 279 8.0 11.3 0.00 0.00 0.00 64 1008.8
20260507183304 16 286 8.0 12.9 0.00 0.00 0.00 66 1008.9
20260507182805 15 291 6.4 9.7 0.00 0.00 0.00 68 1008.9
20260507182307 16 277 6.4 14.5 0.00 0.00 0.00 67 1008.9
20260507180805 16 280 4.8 11.3 0.00 0.00 0.00 69 1009.0
20260507180304 16 276 8.0 16.1 0.00 0.00 0.00 67 1009.0
20260507175805 15 315 9.7 12.9 0.00 0.00 0.00 67 1008.9
20260507174804 15 290 6.4 14.5 0.00 0.00 0.00 67 1008.9
20260507174305 16 294 6.4 14.5 0.00 0.00 0.00 69 1009.0
20260507173804 16 231 3.2 9.7 0.00 0.00 0.00 69 1009.0
20260507173304 16 281 8.0 11.3 0.00 0.00 0.00 67 1009.0
20260507172804 16 282 8.0 16.1 0.00 0.00 0.00 66 1009.0
20260507170804 16 271 8.0 14.5 0.00 0.00 0.00 66 1009.0
20260507170305 16 258 8.0 12.9 0.00 0.00 0.00 66 1008.9
20260507165805 17 286 8.0 16.1 0.00 0.00 0.00 63 1008.6
20260507165306 17 286 8.0 11.3 0.00 0.00 0.00 64 1009.0
20260507164805 17 286 11.3 14.5 0.00 0.00 0.00 63 1009.1
20260507161804 16 247 6.4 11.3 0.00 0.00 0.00 65 1009.2
20260507161305 16 243 9.7 14.5 0.00 0.00 0.00 64 1009.3
20260507155306 17 274 6.4 11.3 0.00 0.00 0.00 66 1009.3
20260507154805 17 270 11.3 19.3 0.00 0.00 0.00 66 1009.4
20260507154305 17 302 9.7 16.1 0.00 0.00 0.00 65 1009.3
20260507153304 16 229 9.7 14.5 0.00 0.00 0.00 67 1009.1
20260507152805 16 226 9.7 16.1 0.00 0.00 0.00 67 1009.0
20260507152306 16 205 8.0 11.3 0.00 0.00 0.00 66 1009.0
20260507151805 16 189 4.8 8.0 0.00 0.00 0.00 68 1008.9
20260507144306 15 117 4.8 9.7 0.00 0.00 0.00 67 1009.0
20260507143805 15 118 6.4 9.7 0.00 0.00 0.00 68 1009.2
20260507143306 15 182 3.2 8.0 0.00 0.00 0.00 68 1009.6
20260507140805 15 295 4.8 11.3 0.00 0.00 0.00 63 1010.3
20260507140306 15 311 4.8 11.3 0.00 0.00 0.00 62 1010.2
20260507132307 15 285 3.2 4.8 0.00 0.00 0.00 62 1010.6
20260507130805 16 297 3.2 4.8 0.00 0.00 0.00 62 1010.8
20260507130305 16 287 3.2 8.0 0.00 0.00 0.00 62 1010.9
20260507125806 16 294 1.6 3.2 0.00 0.00 0.00 65 1011.1
20260507124305 16 286 3.2 4.8 0.00 0.00 0.00 56 1011.4
20260507122805 16 292 6.4 11.3 0.00 0.00 0.00 57 1011.3
20260507120805 16 287 3.2 9.7 0.00 0.00 0.00 57 1011.6
20260507120306 16 302 8.0 16.1 0.00 0.00 0.00 56 1011.5
20260507115805 16 282 6.4 9.7 0.00 0.00 0.00 58 1011.5
20260507115307 16 296 9.7 19.3 0.00 0.00 0.00 57 1011.6
20260507114805 17 273 6.4 16.1 0.00 0.00 0.00 56 1011.4
20260507113805 17 285 3.2 8.0 0.00 0.00 0.00 58 1011.5
20260507111305 18 306 6.4 19.3 0.00 0.00 0.00 60 1011.5
20260507110805 18 293 3.2 14.5 0.00 0.00 0.00 59 1011.4
20260507105307 17 286 4.8 11.3 0.00 0.00 0.00 60 1011.1
20260507104805 17 290 4.8 20.9 0.00 0.00 0.00 63 1011.4
20260507104306 17 291 4.8 16.1 0.00 0.00 0.00 64 1011.3
20260507101306 17 288 6.4 11.3 0.00 0.00 0.00 64 1011.3
20260507093305 15 259 1.6 4.8 0.00 0.00 0.00 67 1011.2
20260507092806 16 274 4.8 8.0 0.00 0.00 0.00 67 1011.2
20260507084806 15 240 0.0 1.6 0.00 0.00 0.00 75 1010.9
20260507083805 14 147 1.6 3.2 0.00 0.00 0.00 74 1011.0
20260507081305 15 87 1.6 4.8 0.00 0.00 0.00 74 1011.0
20260507080805 15 52 1.6 3.2 0.00 0.00 0.00 74 1011.2
20260507080305 15 28 1.6 3.2 0.00 0.00 0.00 75 1011.2
20260507073305 13 37 3.2 4.8 0.00 0.00 0.00 78 1011.2
20260507072805 13 40 3.2 4.8 0.00 0.00 0.00 77 1011.1
20260507071305 12 44 3.2 4.8 0.00 0.00 0.00 77 1011.1
20260507070805 12 40 4.8 4.8 0.00 0.00 0.00 77 1011.1
20260507070305 12 30 3.2 4.8 0.00 0.00 0.00 77 1011.1
20260507065805 12 27 3.2 4.8 0.00 0.00 0.00 77 1011.0
20260507065306 12 27 3.2 4.8 0.00 0.00 0.00 77 1010.5
20260507064805 12 28 3.2 4.8 0.00 0.00 0.00 77 1010.6
20260507063305 12 25 4.8 4.8 0.00 0.00 0.00 77 1010.5
20260507062805 12 38 4.8 4.8 0.00 0.00 0.00 76 1010.4
20260507062306 12 32 4.8 4.8 0.00 0.00 0.00 76 1010.4
20260507061805 12 27 4.8 8.0 0.00 0.00 0.00 76 1010.5
20260507061305 12 22 4.8 8.0 0.00 0.00 0.00 76 1010.4
20260507060805 12 28 4.8 8.0 0.00 0.00 0.00 76 1010.4
20260507054805 12 37 6.4 8.0 0.00 0.00 0.00 73 1010.6
20260507054305 12 25 4.8 8.0 0.00 0.00 0.00 73 1010.4
20260507053805 12 25 4.8 8.0 0.00 0.00 0.00 73 1010.6
20260507053305 12 25 4.8 8.0 0.00 0.00 0.00 74 1010.6
20260507051805 11 32 4.8 8.0 0.00 0.00 0.00 72 1010.1
20260507050306 11 26 4.8 8.0 0.00 0.00 0.00 73 1009.9
20260507044304 12 17 3.2 8.0 0.00 0.00 0.00 74 1010.6
20260507043805 12 3 3.2 4.8 0.00 0.00 0.00 75 1010.7
20260507042307 12 27 8.0 9.7 0.00 0.00 0.00 77 1010.7
20260507041806 12 34 4.8 8.0 0.00 0.00 0.00 77 1010.6
20260507040305 12 46 8.0 9.7 0.00 0.00 0.00 77 1011.1
20260507035805 12 30 4.8 9.7 0.00 0.00 0.00 77 1011.1
20260507035306 12 42 6.4 8.0 0.00 0.00 0.00 77 1011.1
20260507033805 12 42 8.0 9.7 0.00 0.00 0.00 76 1011.2
20260507032306 12 36 4.8 8.0 0.00 0.00 0.00 74 1011.1
20260507031305 12 39 4.8 8.0 0.00 0.00 0.00 73 1011.0
20260507030805 12 33 8.0 9.7 0.00 0.00 0.00 73 1011.3
20260507030305 12 33 6.4 9.7 0.00 0.00 0.00 73 1011.2
20260507025805 12 42 6.4 9.7 0.00 0.00 0.00 72 1011.0
20260507025306 12 42 4.8 8.0 0.00 0.00 0.00 71 1011.4
20260507024805 12 31 4.8 8.0 0.00 0.00 0.00 70 1011.3
20260507024305 12 34 4.8 8.0 0.00 0.00 0.00 69 1011.5
20260507023804 12 37 6.4 8.0 0.00 0.00 0.00 69 1011.5
20260507022306 12 38 6.4 8.0 0.00 0.00 0.00 69 1011.7
20260507021805 12 40 4.8 8.0 0.00 0.00 0.00 69 1011.7
20260507021304 12 43 4.8 8.0 0.00 0.00 0.00 68 1011.7
20260507020805 12 35 6.4 9.7 0.00 0.00 0.00 68 1011.8
20260507020305 12 48 4.8 9.7 0.00 0.00 0.00 68 1011.8
20260507015805 12 32 6.4 9.7 0.00 0.00 0.00 67 1011.9
20260507014805 12 48 3.2 9.7 0.00 0.00 0.00 68 1011.9
20260507014305 12 51 3.2 8.0 0.00 0.00 0.00 66 1012.0
20260507012805 12 43 4.8 9.7 0.00 0.00 0.00 65 1012.3
20260507012306 12 39 6.4 11.3 0.00 0.00 0.00 65 1012.4
20260507011305 12 41 4.8 9.7 0.00 0.00 0.00 64 1012.6
20260507005306 12 47 6.4 9.7 0.00 0.00 0.00 63 1012.7
20260507004805 12 27 8.0 11.3 0.00 0.00 0.00 62 1012.8
20260507003305 12 46 6.4 16.1 0.00 0.00 0.00 63 1013.0
20260507002805 12 46 8.0 16.1 0.00 0.00 0.00 63 1012.9
20260507001805 12 40 8.0 14.5 0.00 0.00 0.00 65 1013.0
20260507001305 12 37 8.0 14.5 0.00 0.00 0.00 65 1013.0
20260507000804 12 42 4.8 11.3 0.00 0.00 0.00 66 1013.1
20260506235306 12 36 8.0 11.3 0.00 0.00 0.00 66 1013.1
20260506234805 12 44 8.0 11.3 0.00 0.00 0.00 67 1012.9
20260506234304 12 31 3.2 12.9 0.00 0.00 0.00 67 1013.0
20260506233805 12 27 4.8 9.7 0.00 0.00 0.00 67 1013.1
20260506233305 12 57 4.8 8.0 0.00 0.00 0.00 66 1013.2
20260506232306 12 43 6.4 14.5 0.00 0.00 0.00 66 1013.0
20260506231804 13 39 4.8 11.3 0.00 0.00 0.00 65 1013.1
20260506231305 13 27 3.2 8.0 0.00 0.00 0.00 65 1013.1
20260506225804 13 34 4.8 11.3 0.00 0.00 0.00 65 1013.2
20260506222306 13 41 8.0 14.5 0.00 0.00 0.00 65 1013.3
20260506221805 13 25 8.0 19.3 0.00 0.00 0.00 64 1013.4
20260506221304 13 30 8.0 19.3 0.00 0.00 0.00 64 1013.4
20260506220805 13 20 9.7 19.3 0.00 0.00 0.00 64 1013.3
20260506214305 13 31 8.0 19.3 0.00 0.00 0.00 67 1013.5
20260506213805 13 40 8.0 19.3 0.00 0.00 0.00 67 1013.5
20260506212805 13 21 6.4 16.1 0.00 0.00 0.00 67 1013.4
20260506212306 13 33 8.0 14.5 0.00 0.00 0.00 67 1013.5
20260506211804 13 38 8.0 11.3 0.00 0.00 0.00 67 1013.5
20260506211304 13 27 9.7 19.3 0.00 0.00 0.00 66 1013.4
20260506210805 13 31 4.8 16.1 0.00 0.00 0.00 67 1013.2